Date String (YYYY-MM-DD hh:mm:ss) UTC,Instrument flags,absolute air pressure of the measurement (hPa),sample flow rate (lpm),inlet stack bypass flow (lpm),air temperature of the measurement (°C),ambient temperature measured by the external sensor (°C),aerosol sample conditioner tube jacket temperature (°C),OPC LED temperature (°C),internal box temperature (°C),relative humidity of the measurement (%),span deviation,mass concentration of particles derived from Lorenz-Mie calculation of OPC scattering (μg/m³),mass concentration of particles derived from Lorenz-Mie calculation of OPC scattering (μg/m³),mass concentration of particles derived from Lorenz-Mie calculation of OPC scattering (μg/m³)
DateTimeUTC,F1_M11,P_M11,Q1_M11,Q2_M11,T1_M11,T2_M11,T3_M11,T4_M11,T5_M11,U1_M11,ZSPAN_M11,X0_M11,X2_M11,X1_M11
2023-09-03 09:00:00,SystemResetWarning,0833.4,4.99,000.00,027.9,026.5,000.0,036.3,029.6,29.0,0000.0,0004.41,0002.04,0001.54
2023-09-03 09:01:00,SystemResetWarning,0833.4,5.01,000.00,028.0,026.7,000.0,036.4,029.6,29.0,0000.0,0004.46,0002.04,0001.54
2023-09-03 09:02:00,SystemResetWarning,0833.4,5.01,000.00,028.0,026.9,000.0,036.4,029.7,29.1,0000.0,0004.41,0002.02,0001.53
2023-09-03 09:03:00,SystemResetWarning,0833.4,5.00,000.00,028.1,027.0,000.0,036.4,029.8,29.7,0000.0,0004.41,0002.02,0001.54
2023-09-03 09:04:00,SystemResetWarning,0833.4,4.99,000.00,028.1,027.1,000.0,036.4,029.8,29.5,0000.0,0004.48,0002.03,0001.53
2023-09-03 09:05:00,SystemResetWarning,0833.4,4.99,000.00,028.2,027.2,000.0,036.5,029.9,29.1,0000.0,0003.84,0002.00,0001.53
2023-09-03 09:06:00,SystemResetWarning,0833.4,5.01,000.00,028.2,027.3,000.0,036.5,029.9,29.0,0000.0,0003.54,0002.03,0001.53
2023-09-03 09:07:00,SystemResetWarning,0833.4,5.01,000.00,028.3,027.4,000.0,036.5,030.0,29.1,0000.0,0003.37,0001.97,0001.54
2023-09-03 09:08:00,SystemResetWarning,0833.3,4.99,000.00,028.3,027.1,000.0,036.5,029.9,28.6,0000.0,0002.79,0001.90,0001.53
2023-09-03 09:09:00,SystemResetWarning,0833.3,4.99,000.00,028.2,025.5,000.0,036.4,029.5,28.7,0000.0,0002.83,0001.90,0001.54
2023-09-03 09:10:00,SystemResetWarning,0833.3,5.00,000.00,028.1,024.8,000.0,036.4,029.3,28.9,0000.0,0002.85,0001.90,0001.53
2023-09-03 09:11:00,SystemResetWarning,0833.2,5.01,000.00,028.0,024.9,000.0,036.4,029.2,28.9,0000.0,0002.80,0001.87,0001.52
2023-09-03 09:12:00,SystemResetWarning,0833.3,5.01,000.00,028.0,025.2,000.0,036.4,029.3,29.1,0000.0,0003.42,0001.85,0001.53
2023-09-03 09:13:00,SystemResetWarning,0833.3,5.00,000.00,028.0,025.5,000.0,036.4,029.4,29.2,0000.0,0003.71,0001.83,0001.53
2023-09-03 09:14:00,SystemResetWarning,0833.3,5.00,000.00,028.0,025.9,000.0,036.4,029.5,29.2,0000.0,0003.70,0001.80,0001.54
2023-09-03 09:15:00,SystemResetWarning,0833.2,5.00,000.00,028.0,026.2,000.0,036.4,029.6,28.8,0000.0,0003.57,0001.77,0001.54
2023-09-03 09:16:00,SystemResetWarning,0833.2,5.00,000.00,028.0,026.4,000.0,036.4,029.7,28.7,0000.0,0003.52,0001.78,0001.54
2023-09-03 09:17:00,SystemResetWarning,0833.2,5.01,000.00,028.1,026.6,000.0,036.5,029.7,28.5,0000.0,0003.43,0001.75,0001.54
2023-09-03 09:18:00,SystemResetWarning,0833.2,5.00,000.00,028.1,026.8,000.0,036.5,029.8,28.6,0000.0,0003.52,0001.71,0001.52
2023-09-03 09:19:00,SystemResetWarning,0833.2,5.01,000.00,028.2,027.0,000.0,036.5,029.8,28.4,0000.0,0004.25,0001.75,0001.53
2023-09-03 09:20:00,SystemResetWarning,0833.3,5.00,000.00,028.2,027.1,000.0,036.5,029.9,28.4,0000.0,0004.40,0001.79,0001.53
2023-09-03 09:21:00,SystemResetWarning,0833.2,5.00,000.00,028.2,027.2,000.0,036.6,030.0,28.1,0000.0,0004.54,0001.80,0001.53
2023-09-03 09:22:00,SystemResetWarning,0833.3,4.99,000.00,028.3,027.3,000.0,036.6,030.0,28.2,0000.0,0004.64,0001.84,0001.52
2023-09-03 09:23:00,SystemResetWarning,0833.3,4.98,000.00,028.3,027.0,000.0,036.6,029.9,28.2,0000.0,0003.97,0001.85,0001.51
2023-09-03 09:24:00,SystemResetWarning,0833.2,5.00,000.00,028.2,025.6,000.0,036.5,029.5,28.2,0000.0,0003.97,0001.89,0001.52
2023-09-03 09:25:00,SystemResetWarning,0833.3,5.01,000.00,028.1,024.9,000.0,036.4,029.3,28.3,0000.0,0004.04,0001.93,0001.52
2023-09-03 09:26:00,SystemResetWarning,0833.3,5.00,000.00,028.1,025.0,000.0,036.4,029.2,28.6,0000.0,0004.16,0001.97,0001.53
2023-09-03 09:27:00,SystemResetWarning,0833.3,5.00,000.00,028.0,025.3,000.0,036.4,029.3,28.7,0000.0,0004.48,0001.95,0001.52
2023-09-03 09:28:00,SystemResetWarning,0833.3,5.00,000.00,028.0,025.7,000.0,036.5,029.4,28.8,0000.0,0004.54,0001.97,0001.53
2023-09-03 09:29:00,SystemResetWarning,0833.3,5.00,000.00,028.0,026.0,000.0,036.5,029.5,28.8,0000.0,0004.36,0001.97,0001.53
2023-09-03 09:30:00,SystemResetWarning,0833.3,5.00,000.00,028.1,026.3,000.0,036.5,029.6,28.8,0000.0,0003.73,0001.98,0001.52
2023-09-03 09:31:00,SystemResetWarning,0833.4,5.00,000.00,028.1,026.5,000.0,036.5,029.7,28.8,0000.0,0003.63,0001.96,0001.51
2023-09-03 09:32:00,SystemResetWarning,0833.4,5.01,000.00,028.1,026.7,000.0,036.5,029.8,28.7,0000.0,0003.54,0001.96,0001.51
2023-09-03 09:33:00,SystemResetWarning,0833.4,4.99,000.00,028.2,026.9,000.0,036.5,029.8,28.5,0000.0,0003.48,0001.93,0001.51
2023-09-03 09:34:00,SystemResetWarning,0833.4,4.99,000.00,028.2,027.0,000.0,036.5,029.9,28.6,0000.0,0003.60,0001.96,0001.50
2023-09-03 09:35:00,SystemResetWarning,0833.4,5.00,000.00,028.3,027.2,000.0,036.6,030.0,28.5,0000.0,0003.52,0001.99,0001.49
2023-09-03 09:36:00,SystemResetWarning,0833.5,4.99,000.00,028.3,027.3,000.0,036.6,030.0,28.4,0000.0,0003.39,0001.96,0001.49
2023-09-03 09:37:00,SystemResetWarning,0833.4,5.01,000.00,028.3,027.4,000.0,036.6,030.1,28.3,0000.0,0003.58,0001.94,0001.47
2023-09-03 09:38:00,SystemResetWarning,0833.4,5.00,000.00,028.4,026.9,000.0,036.6,030.0,28.3,0000.0,0003.20,0001.94,0001.47
2023-09-03 09:39:00,SystemResetWarning,0833.4,4.98,000.00,028.3,025.4,000.0,036.5,029.5,28.5,0000.0,0003.28,0001.96,0001.49
2023-09-03 09:40:00,SystemResetWarning,0833.4,5.01,000.00,028.2,024.9,000.0,036.5,029.4,28.6,0000.0,0003.28,0001.97,0001.48
2023-09-03 09:41:00,SystemResetWarning,0833.4,5.01,000.00,028.1,025.0,000.0,036.5,029.3,28.7,0000.0,0003.90,0001.95,0001.48
2023-09-03 09:42:00,SystemResetWarning,0833.4,5.00,000.00,028.0,025.3,000.0,036.5,029.3,28.7,0000.0,0004.67,0001.97,0001.49
2023-09-03 09:43:00,SystemResetWarning,0833.4,5.00,000.00,028.0,025.6,000.0,036.5,029.5,28.7,0000.0,0004.68,0001.97,0001.49
2023-09-03 09:44:00,SystemResetWarning,0833.4,5.00,000.00,028.1,026.0,000.0,036.5,029.6,28.7,0000.0,0004.83,0002.03,0001.49
2023-09-03 09:45:00,SystemResetWarning,0833.4,5.00,000.00,028.1,026.3,000.0,036.5,029.6,28.7,0000.0,0004.74,0001.99,0001.50
2023-09-03 09:46:00,SystemResetWarning,0833.5,4.99,000.00,028.1,026.5,000.0,036.5,029.7,28.6,0000.0,0004.66,0001.98,0001.52
2023-09-03 09:47:00,SystemResetWarning,0833.5,5.00,000.00,028.2,026.7,000.0,036.5,029.8,28.5,0000.0,0004.54,0001.95,0001.52
2023-09-03 09:48:00,SystemResetWarning,0833.6,5.00,000.00,028.2,026.9,000.0,036.6,029.9,28.5,0000.0,0004.35,0001.94,0001.52
2023-09-03 09:49:00,SystemResetWarning,0833.6,5.00,000.00,028.2,027.1,000.0,036.6,029.9,28.4,0000.0,0004.44,0001.97,0001.52
2023-09-03 09:50:00,SystemResetWarning,0833.7,5.01,000.00,028.3,027.2,000.0,036.6,030.0,28.4,0000.0,0004.38,0001.97,0001.52
2023-09-03 09:51:00,SystemResetWarning,0833.6,4.99,000.00,028.3,027.2,000.0,036.6,030.0,28.7,0000.0,0004.45,0001.98,0001.53
2023-09-03 09:52:00,SystemResetWarning,0833.7,4.98,000.00,028.3,025.9,000.0,036.5,029.6,29.8,0000.0,0004.60,0002.03,0001.54
2023-09-03 09:53:00,SystemResetWarning,0833.6,5.02,000.00,028.1,024.9,000.0,036.5,029.3,29.8,0000.0,0004.01,0002.01,0001.54
2023-09-03 09:54:00,SystemResetWarning,0833.5,5.01,000.00,028.0,024.9,000.0,036.4,029.2,29.7,0000.0,0003.95,0002.00,0001.54
2023-09-03 09:55:00,SystemResetWarning,0833.5,4.99,000.00,028.0,025.1,000.0,036.5,029.2,29.7,0000.0,0003.77,0001.94,0001.55
2023-09-03 09:56:00,SystemResetWarning,0833.6,5.00,000.00,028.0,025.5,000.0,036.5,029.4,29.6,0000.0,0003.73,0001.94,0001.56
2023-09-03 09:57:00,SystemResetWarning,0833.6,5.00,000.00,028.0,025.8,000.0,036.5,029.5,29.3,0000.0,0003.69,0001.93,0001.56
2023-09-03 09:58:00,SystemResetWarning,0833.6,5.01,000.00,028.0,026.1,000.0,036.5,029.6,28.9,0000.0,0003.82,0002.00,0001.57
2023-09-03 09:59:00,SystemResetWarning,0833.6,4.99,000.00,028.1,026.4,000.0,036.5,029.7,28.6,0000.0,0003.85,0002.03,0001.58
